SCP
0 0 0 0 0 0 0 0 0 0 0 0 0 0 0 0 0 0 0 0 0 0 0 0 0 0 0 0 0 0 0 0 0 0 0 0 0 0 0 -0 -0 -0 0 -0 -0 -0 0 0 0 0 0 0 0 0
0 0 0 0 0 0 0 0 0 0 0 0 0 0 0 0 0 0 0 0 0 0 0 0 0 0 0 0 0 0 0 0 0 -0 0 0 0 0 0 -0 -0 0 0 0 0 -0 0 0 0 0 0 0 0 0
0 0 0 0 0 0 0 0 0 0 0 0 0 0 0 0 0 0 0 0 0 0 0 0 0 0 0 0 0 0 0 0 0 0 0 0 0 0 -0 -0 0 -0 0 0 -0 0 0 0 0 0 0 0 0 0
0 0 0 0 0 0 0 0 0 0 0 0 0 0 0 0 0 0 0 0 0 0 0 0 0 -0 0 0 0 0 0 0 0 0 -0 0 0 0 -0 -0 -0 -0 0 -0 0 0 0 0 0 0 0 0 0 0
0 0 0 0 0 0 0 0 0 0 0 0 0 0 0 0 0 0 0 0 0 0 0 0 -0 0 0 0 0 0 0 0 0 -0 0 0 -0 0 -0 -0 -0 -0 0 -0 -0 0 0 0 -0 0 0 0 0 0
0 0 0 0 0 0 0 0 0 0 0 0 0 0 0 0 0 0 0 0 0 0 0 0 0 0 0 0 0 0 0 0 0 0 0 -0 -0 -0 -0 -0 -0 0 -0 -0 -0 0 0 0 0 0 0 0 0 0
0 0 0 0 0 0 0 0 0 0 0 0 0 0 0 0 0 0 0 0 0 0 0 0 0 0 0 0 0 0 0 0 0 0 0 -0 -0 -0 -0 -0 -0 0 0 0 0 -0 0 0 0 0 0 0 0 0
0 0 0 0 0 0 0 0 0 0 0 0 0 0 0 0 0 0 -0 0 0 0 0 0 0 0 0 0 0 0 0 0 0 0 0 -0 -0 -0 -0 -0 -0 0 -0 -0 -0 0 0 0 0 0 0 0 0 0
0 0 0 0 0 0 0 0 0 0 0 0 0 0 0 0 0 0 0 0 0 0 0 0 0 0 0 0 0 0 0 0 0 0 0 0 0 -0 -0 -0 -0 -0 -0 0 -0 0 0 0 0 0 0 0 0 0
0 0 0 0 0 0 0 0 0 0 0 0 0 0 0 0 0 0 0 0 0 0 0 0 0 0 0 0 0 0 0 0 0 0 0 0 0 0 -0 -0 -0 -0 -0 -0 0 0 0 0 0 0 0 0 0 0
0 0 0 0 0 0 0 0 0 0 0 0 0 0 0 0 0 0 0 0 0 0 0 0 0 0 0 0 0 0 0 0 0 0 0 0 0 0 0 -0 -0 -0 -0 0 -0 -0 -0 0 0 0 0 0 0 0
0 0 0 0 0 0 0 0 0 0 0 0 0 0 0 0 0 0 0 0 0 0 0 0 0 0 0 0 0 0 0 0 0 -0 0 0 0 0 0 -0 -0 -0 -0 -0 -0 0 -0 0 0 0 0 0 0 0
0 0 0 0 0 0 0 0 0 0 0 0 0 0 0 0 0 0 0 0 0 0 0 0 0 0 0 0 0 0 0 0 -0 -0 0 0 0 -0 0 0 -0 0 -0 -0 -0 -0 -0 -0 -0 0 0 0 0 0
0 0 0 0 0 0 0 0 0 0 0 0 0 0 0 0 0 0 -0 -0 0 0 0 0 0 0 0 0 0 0 0 0 0 -0 -0 0 0 0 0 0 0 -0 0 0 -0 -0 -0 -0 -0 -0 0 0 0 0
0 0 0 0 0 0 0 0 0 0 0 0 0 0 0 0 -0 -0 0 0 0 0 0 0 0 0 0 0 0 0 0 0 0 -0 -0 0 0 -0 0 0 0 0 0 -0 -0 -0 -0 -0 -0 -0 0 0 0 0
0 0 0 0 0 0 0 0 0 0 0 0 0 0 0 0 0 0 0 0 0 0 0 0 0 0 0 0 0 0 0 0 0 0 0 0 -0 -0 0 0 0 0 0 0 0 0 0 -0 -0 -0 -0 -0 -0 -0
0 0 0 0 0 0 0 0 0 0 0 0 0 0 0 0 0 0 0 0 0 0 0 0 0 0 0 0 0 0 0 0 0 0 0 0 0 0 0 0 0 0 0 0 0 0 0 0 0 0 0 0 0 -0
0 0 0 0 0 0 0 0 0 0 0 0 0 0 0 0 0 0 0 0 0 0 0 0 0 0 0 0 0 0 0 0 0 0 0 0 0 0 0 -0 -0 0 0 0 0 -0 0 0 0 0 0 0 0 0
0 0 0 0 0 0 0 0 0 0 0 0 0 0 0 0 0 0 0 0 0 0 0 0 0 0 0 0 0 0 0 0 0 0 0 0 0 -0 0 0 0 0 0 0 0 0 0 0 -0 -0 -0 -0 -0 -0
0 0 0 0 0 0 0 0 0 0 0 0 0 0 0 0 0 0 0 0 0 0 0 0 0 0 0 0 0 0 0 0 0 0 0 0 0 -0 0 0 0 0 0 0 0 0 0 0 -0 -0 0 -0 -0 -0
0 0 0 0 0 0 0 0 0 0 0 0 0 0 0 0 0 0 0 0 0 0 0 0 0 0 -0 0 0 0 0 0 0 0 0 0 0 0 0 0 0 0 0 0 0 0 0 0 0 -0 0 0 0 -0
0 0 0 0 0 0 0 0 0 0 0 0 0 0 0 0 0 0 0 0 0 0 0 0 0 0 0 0 0 0 0 0 0 0 0 0 0 0 0 0 0 0 0 0 0 0 0 0 0 0 0 0 0 0
0 0 0 0 0 0 0 0 0 0 0 0 0 0 0 0 0 0 0 0 0 0 0 0 0 0 0 0 0 0 0 0 0 0 0 0 0 0 0 0 0 0 0 0 0 0 0 0 0 0 0 0 0 0
0 0 0 0 0 0 0 0 0 0 0 0 0 0 0 0 0 0 0 0 0 0 0 0 0 0 0 0 0 0 0 0 0 0 0 0 0 0 0 0 0 0 0 0 0 0 0 0 0 0 0 0 0 0
0 0 0 0 0 0 0 0 0 0 0 0 0 0 0 0 0 0 0 0 0 0 0 0 0 0 0 0 0 0 0 0 0 0 0 0 0 0 0 0 0 0 0 0 0 0 0 0 0 0 0 0 0 0
0 0 0 0 0 0 0 0 0 0 -0 0 0 0 0 0 0 0 0 -0 0 0 0 0 0 0 0 0 0 0 0 0 0 0 0 0 0 0 0 0 0 0 0 0 0 0 0 0 0 0 0 0 0 0
0 0 0 0 0 0 -0 0 -0 -0 0 0 -0 -0 -0 -0 0 0 0 0 0 0 0 0 0 0 0 0 0 0 0 0 0 0 0 0 0 0 0 0 0 0 0 0 0 0 0 0 0 0 0 0 0 0
0 0 -0 0 0 -0 0 0 0 0 0 0 0 0 0 0 0 -0 -0 -0 0 0 0 0 0 0 0 0 0 0 0 0 0 0 0 0 0 0 0 0 0 0 0 0 0 0 0 0 0 0 0 0 0 0
0 0 0 -0 0 -0 0 -0 -0 0 0 0 0 0 0 0 -0 -0 -0 -0 -0 0 0 0 0 0 0 0 0 0 0 0 0 0 0 0 0 0 0 0 0 0 0 0 0 0 0 0 0 0 0 0 0 0
0 0 0 0 0 0 0 0 -0 -0 0 0 0 0 0 0 0 0 0 0 0 -0 0 0 0 0 0 0 -0 0 0 0 0 0 0 0 0 0 0 0 0 0 0 0 0 0 0 0 0 0 0 0 0 0
0 0 0 0 0 0 0 -0 0 0 0 0 0 0 0 0 0 0 0 0 0 0 0 0 0 0 0 0 0 0 0 0 0 0 0 0 0 0 0 0 0 0 0 0 0 0 0 0 0 0 0 0 0 0
0 0 0 0 0 0 0 0 -0 -0 -0 0 0 0 0 0 0 0 0 0 0 0 0 0 0 0 0 0 0 0 0 0 0 0 0 0 0 0 0 0 0 0 0 0 0 0 0 0 0 0 0 0 0 0
0 0 0 0 0 0 0 0 0 -0 -0 -0 0 0 0 0 0 0 0 0 0 0 0 0 0 0 0 0 0 0 0 0 0 0 0 0 0 0 0 0 0 0 0 0 0 0 0 0 0 0 0 0 0 0
Wind_Speed_500mb
59 57 58 59 60 61 64 62 66 62 51 52 50 48 47 46 48 46 54 19 31 27 67 60 32 46 62 54 9 21 20 9 6 11 7 7 6 9 7 7 6 6 8 2 2 6 7 34 38 12 12 42 47 23
60 60 61 65 66 65 61 67 65 65 52 49 49 47 47 46 44 49 51 17 26 33 54 77 61 45 44 42 44 5 8 8 10 5 7 6 5 6 8 8 11 4 9 6 12 5 6 41 34 38 34 29 34 37
60 63 67 66 66 69 70 69 67 62 57 48 51 48 46 46 44 52 53 40 21 33 56 21 29 25 17 27 31 9 7 8 6 13 7 3 7 5 5 5 6 10 16 7 3 9 10 18 42 54 54 41 50 46
61 64 69 68 67 71 73 70 63 62 52 46 52 47 47 48 49 54 53 28 23 18 10 21 29 57 25 29 29 17 13 14 13 13 9 5 6 13 1 1 6 7 7 11 7 7 10 13 41 53 50 43 49 44
70 68 67 67 67 68 68 65 57 50 49 51 47 44 46 50 53 52 43 28 33 21 10 30 60 25 24 40 27 17 14 8 6 7 7 6 8 3 7 0 3 7 7 6 4 22 17 36 31 40 49 48 39 42
68 64 64 63 62 65 64 60 53 47 50 54 53 43 45 49 49 30 11 5 17 34 12 7 24 22 21 27 25 30 24 19 10 9 11 11 10 12 4 0 15 27 19 17 8 20 20 24 28 39 36 36 41 42
58 56 59 60 59 59 59 58 51 55 51 49 38 38 43 42 33 16 7 4 15 26 9 10 10 10 22 26 25 29 29 22 19 10 8 8 11 9 4 7 22 30 19 17 22 27 15 33 34 39 24 35 36 43
57 57 56 54 54 55 57 57 50 47 49 43 38 40 39 28 17 14 25 13 18 22 13 6 8 12 15 18 13 22 18 18 13 10 10 5 9 4 5 8 10 20 22 16 28 16 15 17 20 37 39 41 44 41
51 52 50 49 51 52 54 53 49 48 45 37 30 34 23 6 7 8 15 16 37 14 8 8 6 6 3 20 11 8 10 6 6 5 5 5 5 4 1 5 11 23 6 18 29 19 18 22 25 28 30 37 43 46
48 49 47 47 49 49 48 50 45 47 34 26 19 8 5 7 14 13 7 9 12 14 14 10 26 9 6 12 4 9 7 3 1 7 2 4 3 7 10 7 4 4 22 19 27 30 25 26 27 26 27 25 25 25
46 45 44 46 46 45 44 41 41 36 25 19 11 9 11 6 8 9 8 11 14 9 16 17 31 16 9 4 2 2 3 7 4 5 6 4 3 7 11 8 10 15 16 20 26 19 17 27 22 24 27 27 24 19
44 41 41 43 42 40 36 33 29 27 22 27 27 36 23 6 12 8 6 8 12 9 17 11 21 17 8 6 5 3 0 5 7 11 4 5 5 17 14 21 12 17 21 15 22 31 22 25 28 24 29 24 21 18
41 39 39 40 36 33 27 21 26 32 36 15 5 6 5 8 8 11 11 8 7 9 15 16 8 9 7 6 4 4 1 7 21 6 2 3 18 23 11 15 14 16 17 24 30 33 27 35 34 35 33 36 32 33
38 34 32 29 23 24 24 29 33 34 19 7 7 8 10 10 10 11 12 12 9 18 13 11 15 11 13 7 6 4 7 1 6 5 3 7 23 18 14 12 9 7 16 21 25 25 22 25 29 30 28 31 30 32
36 32 23 13 31 41 47 45 35 21 8 10 11 9 12 29 36 34 37 41 35 8 3 5 6 10 3 4 5 1 3 5 8 7 4 18 32 27 22 17 7 9 13 24 18 23 19 22 19 23 23 27 27 38
32 19 12 35 52 54 46 37 23 17 9 11 17 15 32 28 26 33 30 27 24 15 11 6 1 3 8 7 5 8 3 8 7 5 3 27 23 33 25 21 16 7 14 10 14 20 17 14 15 16 23 26 25 36
31 7 35 47 50 43 30 24 6 14 14 12 15 25 40 45 41 49 48 35 9 18 6 6 5 10 6 6 8 9 9 7 15 21 10 21 20 19 23 27 15 16 15 9 9 13 12 13 16 19 23 19 26 34
31 32 37 34 40 43 17 10 11 14 21 29 18 33 37 47 50 53 55 48 33 30 33 11 14 6 7 7 6 8 25 24 21 26 26 21 22 22 23 22 23 29 11 8 8 18 16 8 14 19 17 21 19 16
42 42 34 24 21 26 9 9 14 13 18 27 36 47 51 50 53 55 56 51 38 31 15 7 5 6 9 14 10 12 5 27 27 28 12 32 19 19 13 29 19 20 15 15 15 14 16 10 17 17 22 15 20 22
41 31 23 18 18 9 10 14 15 16 12 18 38 45 45 42 50 51 49 45 34 26 12 8 8 16 23 27 11 19 24 34 21 6 15 16 28 32 24 22 22 17 17 11 15 24 22 24 13 24 16 17 19 18
38 4 19 15 19 24 14 13 15 21 25 31 43 46 37 39 39 32 33 37 29 24 10 22 33 40 47 42 31 30 29 20 32 23 35 24 21 33 30 31 29 25 22 17 17 23 30 15 11 17 12 16 17 14
43 29 31 25 14 13 19 25 20 18 25 34 44 47 26 25 39 51 55 45 26 29 37 44 38 42 49 43 44 34 16 19 19 26 33 24 37 44 30 37 37 29 24 16 19 25 31 24 17 21 13 12 10 13
26 27 23 15 14 14 15 24 16 16 10 11 30 27 18 27 31 45 22 28 41 47 48 45 49 59 50 33 30 29 30 26 35 32 31 30 35 30 27 36 28 27 31 24 26 29 24 23 24 17 14 10 6 5
26 15 11 13 24 11 12 20 21 14 18 17 19 30 24 32 45 31 20 30 39 45 43 34 42 26 22 26 28 32 27 29 32 33 38 39 35 28 28 30 30 34 30 26 23 24 24 22 19 20 15 12 3 6
11 13 10 13 13 10 10 10 22 20 29 29 35 27 14 32 19 25 27 35 45 43 28 32 11 13 29 29 21 19 20 13 13 21 13 34 41 44 32 32 26 24 33 45 41 31 26 26 21 12 7 15 12 1
9 12 13 10 10 13 11 17 15 20 16 12 9 14 18 13 18 14 8 41 45 47 51 46 13 9 31 12 26 16 14 13 16 13 28 23 27 27 46 57 47 37 31 44 38 34 30 32 26 14 6 4 14 10
11 15 21 30 38 43 22 38 39 13 12 9 8 10 5 7 2 11 15 40 39 48 34 28 32 13 16 23 10 9 11 13 17 8 17 27 31 29 41 44 47 43 40 34 35 36 43 32 22 19 14 11 8 14
25 19 26 38 39 42 29 23 25 26 14 12 6 7 8 3 4 10 19 42 49 53 62 48 28 31 33 16 22 18 12 8 5 10 12 14 22 22 34 34 49 51 47 42 40 37 34 35 29 25 23 18 14 13
21 20 33 34 40 34 30 23 23 38 45 40 19 15 5 8 4 14 22 28 31 50 59 52 38 33 30 26 25 26 22 19 14 17 3 4 3 31 26 32 55 59 51 44 40 39 36 32 29 31 29 27 24 17
35 37 28 27 25 20 41 37 46 55 50 42 38 28 24 6 15 9 12 23 31 26 24 30 31 29 28 32 27 25 24 23 20 13 8 7 9 9 27 23 40 46 51 49 47 48 43 42 42 38 34 29 18 13
22 15 20 30 29 43 44 42 39 38 40 42 43 38 29 19 7 26 32 27 22 23 22 24 27 29 34 28 20 15 26 32 29 24 13 7 4 8 8 27 36 38 34 31 38 40 34 38 40 39 33 23 15 10
19 13 12 10 22 25 29 32 33 29 27 25 28 19 15 9 11 22 44 38 31 26 21 19 19 23 21 18 17 12 8 10 13 13 18 15 14 11 14 26 26 21 23 35 39 36 40 40 39 32 21 10 4 6
30 33 29 12 8 4 7 4 5 12 21 21 10 13 16 14 13 21 30 34 29 26 22 16 11 8 11 16 16 18 17 20 17 14 7 9 1 20 19 23 21 13 19 30 36 39 34 31 24 12 2 5 7 5
Wind_Direction_500mb
309 310 313 316 317 318 320 319 320 317 314 315 318 321 326 328 330 323 319 312 259 270 282 285 298 287 300 301 307 319 333 358 321 1 351 346 326 355 323 323 357 353 308 300 210 43 337 358 319 57 334 330 298 30
308 306 309 312 313 315 317 317 320 320 311 312 314 316 320 325 326 324 312 307 271 277 269 289 298 303 281 265 276 281 274 276 340 344 15 305 314 309 337 1 357 355 346 325 354 75 336 330 334 360 322 287 342 58
308 308 307 308 309 313 315 316 316 313 310 304 310 314 314 321 322 319 310 312 271 279 299 294 324 321 283 258 252 208 261 266 286 344 312 282 286 279 338 358 360 341 6 356 17 1 311 328 346 345 337 343 10 32
310 309 308 308 307 311 313 314 315 313 307 300 304 308 312 317 319 317 304 302 241 266 276 283 299 299 278 247 235 264 229 258 290 291 245 244 252 223 347 314 3 327 308 339 319 301 327 352 345 338 333 357 11 10
307 306 307 307 310 313 311 313 319 313 306 309 307 307 310 311 315 313 307 296 208 226 288 299 316 353 232 225 247 259 241 220 267 256 222 240 256 296 86 125 61 337 327 354 292 331 335 317 334 357 334 341 0 5
304 304 307 310 314 312 311 313 317 315 311 306 306 304 305 309 312 313 315 355 196 219 279 298 290 286 212 214 237 244 257 255 235 265 251 260 346 21 91 350 29 349 345 340 310 319 331 330 352 339 335 346 358 360
304 308 310 312 312 312 312 311 315 316 317 322 319 304 300 307 301 220 232 140 178 205 262 277 282 307 221 230 251 236 239 224 231 262 251 267 335 44 65 17 348 319 353 354 342 338 331 347 345 4 2 356 2 11
308 306 308 312 312 310 310 311 314 316 319 321 314 301 301 304 291 261 221 238 200 216 256 270 271 266 220 234 225 230 221 216 234 252 266 262 322 96 81 358 9 18 5 358 341 359 344 340 350 359 18 18 23 12
309 310 313 313 311 309 313 317 317 314 321 321 313 308 299 213 228 238 244 230 205 236 276 239 251 273 218 257 236 227 233 208 248 217 271 49 7 76 67 9 10 25 324 329 8 24 22 28 22 15 13 16 15 13
310 312 316 313 311 315 320 321 319 322 330 331 328 349 192 30 344 307 240 186 202 216 227 258 237 258 298 320 351 357 321 259 180 253 139 45 248 256 245 252 193 360 62 43 12 12 20 23 36 32 20 11 6 358
309 317 317 315 317 318 321 323 327 334 349 2 332 287 257 253 311 247 230 191 184 222 219 238 216 230 312 238 194 29 314 297 272 291 183 192 273 164 196 196 77 59 49 58 48 37 41 41 46 39 22 7 1 349
317 323 321 318 320 323 322 319 334 339 332 305 289 289 300 248 235 240 228 215 202 233 195 217 198 186 178 141 86 33 248 344 280 329 202 174 198 166 172 110 121 52 61 68 61 62 48 44 36 39 26 12 26 6
323 327 325 322 323 323 323 325 334 330 325 330 270 261 237 231 243 215 210 224 213 209 177 205 156 111 106 107 77 67 6 248 317 324 242 187 169 140 126 102 89 62 70 111 92 65 56 51 52 47 47 37 36 32
327 326 322 321 321 327 317 321 324 327 334 279 234 251 213 217 233 208 251 268 219 233 44 13 143 137 178 149 140 158 224 58 342 265 250 126 121 145 161 129 120 46 73 110 91 83 68 55 45 51 53 40 32 31
333 329 320 339 329 320 318 317 313 311 275 271 238 241 233 236 273 274 254 264 280 206 177 315 72 145 95 139 186 122 276 248 214 233 229 171 190 188 176 158 148 71 91 61 90 75 84 67 60 42 42 45 36 29
335 342 339 316 309 310 314 310 325 206 244 239 239 262 277 284 284 293 267 281 280 280 212 139 312 184 193 166 148 187 193 226 245 233 194 154 182 216 177 164 167 132 121 94 63 82 83 71 67 77 59 45 46 27
331 316 301 311 313 318 317 296 208 217 232 237 248 260 271 278 277 282 288 290 285 295 240 132 183 220 218 163 178 167 203 220 242 263 192 150 152 198 167 172 181 173 138 119 119 106 102 83 106 65 67 67 57 46
313 302 315 326 320 322 332 235 243 247 232 239 252 259 262 269 275 278 284 290 286 217 224 184 187 219 216 196 210 217 216 234 254 264 248 222 204 173 189 198 184 168 144 153 173 142 138 116 109 82 78 51 32 60
312 318 331 344 336 327 297 248 222 260 259 272 262 268 271 273 276 276 277 280 284 272 225 315 177 192 224 238 257 14 227 242 238 263 213 178 172 233 222 160 154 148 162 207 175 162 166 123 97 107 89 76 44 52
308 318 326 339 318 291 267 265 235 257 261 255 283 283 278 277 281 284 287 287 288 279 188 181 234 242 239 273 209 222 258 248 225 289 222 217 228 221 216 171 183 203 191 188 185 162 145 126 88 95 112 72 75 44
315 171 284 313 286 248 254 262 249 261 269 265 267 281 278 282 288 294 299 303 298 237 255 222 242 257 259 272 278 274 284 241 221 209 207 201 204 199 212 219 190 198 191 207 169 153 154 125 92 122 132 63 88 61
299 306 292 285 249 249 244 229 242 278 309 284 289 281 270 280 288 285 288 285 279 265 253 264 256 249 258 256 265 261 296 293 284 228 192 199 184 203 197 204 198 199 188 192 161 154 144 133 121 147 109 75 43 46
297 291 254 226 243 243 254 235 239 236 249 283 314 317 302 302 293 297 280 279 270 268 265 263 250 243 247 245 246 284 258 229 253 222 200 186 192 216 199 196 192 194 179 152 159 161 152 142 131 117 110 95 61 34
273 241 222 230 208 257 251 244 261 271 283 286 292 294 294 291 288 280 269 270 282 288 290 268 251 236 256 281 251 249 254 253 254 247 214 197 191 188 183 178 200 211 189 176 167 160 158 163 152 155 142 115 67 10
269 244 227 258 255 240 246 242 258 266 267 269 270 272 271 289 297 292 292 294 302 318 297 281 296 211 211 233 270 268 213 228 246 222 225 207 178 179 205 205 184 191 202 179 172 168 174 163 166 180 158 149 140 318
247 235 214 238 244 252 256 274 282 298 304 303 288 284 287 261 255 272 346 4 340 348 357 338 268 140 284 55 64 55 68 170 290 203 177 206 231 234 196 199 191 192 189 179 166 172 177 173 169 177 185 169 152 123
229 243 233 250 274 283 281 295 306 290 281 276 299 316 273 245 123 10 346 15 4 6 3 357 9 348 35 56 13 30 29 17 40 21 210 231 220 205 202 199 201 190 178 184 178 175 173 177 174 164 165 190 183 176
230 248 251 260 260 269 280 290 294 289 273 268 323 13 352 312 275 320 16 3 5 29 32 23 27 41 35 13 6 20 23 358 324 40 101 169 195 210 197 212 206 188 196 178 175 172 168 170 167 164 168 184 186 216
245 262 269 271 272 273 277 270 271 270 276 285 293 314 230 291 276 5 352 355 4 16 7 10 16 18 31 39 18 21 11 2 359 21 354 57 90 141 150 166 163 173 173 170 172 173 174 174 172 164 172 191 211 232
270 267 254 258 262 265 258 258 268 276 281 277 287 270 268 245 44 344 15 20 17 14 24 25 16 21 21 35 33 42 40 40 43 30 25 85 52 139 166 163 181 182 177 176 174 174 175 172 172 177 191 195 212 245
267 255 255 259 270 269 276 281 280 273 271 283 276 279 291 147 98 40 29 15 15 24 37 54 50 49 46 34 34 31 58 69 69 66 57 28 200 172 156 157 151 167 175 183 191 185 178 172 182 197 190 189 209 235
254 253 269 274 285 290 280 272 266 255 268 277 287 284 293 104 70 29 9 11 16 18 23 24 27 36 31 11 19 33 15 346 1 43 60 79 83 101 137 184 175 178 171 160 169 176 184 183 180 185 184 173 172 197
284 280 273 286 283 272 6 194 270 248 253 240 253 30 63 71 69 23 11 17 17 14 15 16 7 4 44 52 62 63 61 57 52 56 60 50 16 17 56 53 61 103 149 149 160 169 167 166 157 152 187 237 221 192
Wind_Speed_850mb
59 57 58 59 60 61 64 62 66 62 51 52 50 48 47 46 48 46 54 19 31 27 67 60 32 46 62 54 9 21 20 9 6 11 7 7 6 9 7 7 6 6 8 2 2 6 7 34 38 12 12 42 47 23
60 60 61 65 66 65 61 67 65 65 52 49 49 47 47 46 44 49 51 17 26 33 54 77 61 45 44 42 44 5 8 8 10 5 7 6 5 6 8 8 11 4 9 6 12 5 6 41 34 38 34 29 34 37
60 63 67 66 66 69 70 69 67 62 57 48 51 48 46 46 44 52 53 40 21 33 56 21 29 25 17 27 31 9 7 8 6 13 7 3 7 5 5 5 6 10 16 7 3 9 10 18 42 54 54 41 50 46
61 64 69 68 67 71 73 70 63 62 52 46 52 47 47 48 49 54 53 28 23 18 10 21 29 57 25 29 29 17 13 14 13 13 9 5 6 13 1 1 6 7 7 11 7 7 10 13 41 53 50 43 49 44
70 68 67 67 67 68 68 65 57 50 49 51 47 44 46 50 53 52 43 28 33 21 10 30 60 25 24 40 27 17 14 8 6 7 7 6 8 3 7 0 3 7 7 6 4 22 17 36 31 40 49 48 39 42
68 64 64 63 62 65 64 60 53 47 50 54 53 43 45 49 49 30 11 5 17 34 12 7 24 22 21 27 25 30 24 19 10 9 11 11 10 12 4 0 15 27 19 17 8 20 20 24 28 39 36 36 41 42
58 56 59 60 59 59 59 58 51 55 51 49 38 38 43 42 33 16 7 4 15 26 9 10 10 10 22 26 25 29 29 22 19 10 8 8 11 9 4 7 22 30 19 17 22 27 15 33 34 39 24 35 36 43
57 57 56 54 54 55 57 57 50 47 49 43 38 40 39 28 17 14 25 13 18 22 13 6 8 12 15 18 13 22 18 18 13 10 10 5 9 4 5 8 10 20 22 16 28 16 15 17 20 37 39 41 44 41
51 52 50 49 51 52 54 53 49 48 45 37 30 34 23 6 7 8 15 16 37 14 8 8 6 6 3 20 11 8 10 6 6 5 5 5 5 4 1 5 11 23 6 18 29 19 18 22 25 28 30 37 43 46
48 49 47 47 49 49 48 50 45 47 34 26 19 8 5 7 14 13 7 9 12 14 14 10 26 9 6 12 4 9 7 3 1 7 2 4 3 7 10 7 4 4 22 19 27 30 25 26 27 26 27 25 25 25
46 45 44 46 46 45 44 41 41 36 25 19 11 9 11 6 8 9 8 11 14 9 16 17 31 16 9 4 2 2 3 7 4 5 6 4 3 7 11 8 10 15 16 20 26 19 17 27 22 24 27 27 24 19
44 41 41 43 42 40 36 33 29 27 22 27 27 36 23 6 12 8 6 8 12 9 17 11 21 17 8 6 5 3 0 5 7 11 4 5 5 17 14 21 12 17 21 15 22 31 22 25 28 24 29 24 21 18
41 39 39 40 36 33 27 21 26 32 36 15 5 6 5 8 8 11 11 8 7 9 15 16 8 9 7 6 4 4 1 7 21 6 2 3 18 23 11 15 14 16 17 24 30 33 27 35 34 35 33 36 32 33
38 34 32 29 23 24 24 29 33 34 19 7 7 8 10 10 10 11 12 12 9 18 13 11 15 11 13 7 6 4 7 1 6 5 3 7 23 18 14 12 9 7 16 21 25 25 22 25 29 30 28 31 30 32
36 32 23 13 31 41 47 45 35 21 8 10 11 9 12 29 36 34 37 41 35 8 3 5 6 10 3 4 5 1 3 5 8 7 4 18 32 27 22 17 7 9 13 24 18 23 19 22 19 23 23 27 27 38
32 19 12 35 52 54 46 37 23 17 9 11 17 15 32 28 26 33 30 27 24 15 11 6 1 3 8 7 5 8 3 8 7 5 3 27 23 33 25 21 16 7 14 10 14 20 17 14 15 16 23 26 25 36
31 7 35 47 50 43 30 24 6 14 14 12 15 25 40 45 41 49 48 35 9 18 6 6 5 10 6 6 8 9 9 7 15 21 10 21 20 19 23 27 15 16 15 9 9 13 12 13 16 19 23 19 26 34
31 32 37 34 40 43 17 10 11 14 21 29 18 33 37 47 50 53 55 48 33 30 33 11 14 6 7 7 6 8 25 24 21 26 26 21 22 22 23 22 23 29 11 8 8 18 16 8 14 19 17 21 19 16
42 42 34 24 21 26 9 9 14 13 18 27 36 47 51 50 53 55 56 51 38 31 15 7 5 6 9 14 10 12 5 27 27 28 12 32 19 19 13 29 19 20 15 15 15 14 16 10 17 17 22 15 20 22
41 31 23 18 18 9 10 14 15 16 12 18 38 45 45 42 50 51 49 45 34 26 12 8 8 16 23 27 11 19 24 34 21 6 15 16 28 32 24 22 22 17 17 11 15 24 22 24 13 24 16 17 19 18
38 4 19 15 19 24 14 13 15 21 25 31 43 46 37 39 39 32 33 37 29 24 10 22 33 40 47 42 31 30 29 20 32 23 35 24 21 33 30 31 29 25 22 17 17 23 30 15 11 17 12 16 17 14
43 29 31 25 14 13 19 25 20 18 25 34 44 47 26 25 39 51 55 45 26 29 37 44 38 42 49 43 44 34 16 19 19 26 33 24 37 44 30 37 37 29 24 16 19 25 31 24 17 21 13 12 10 13
26 27 23 15 14 14 15 24 16 16 10 11 30 27 18 27 31 45 22 28 41 47 48 45 49 59 50 33 30 29 30 26 35 32 31 30 35 30 27 36 28 27 31 24 26 29 24 23 24 17 14 10 6 5
26 15 11 13 24 11 12 20 21 14 18 17 19 30 24 32 45 31 20 30 39 45 43 34 42 26 22 26 28 32 27 29 32 33 38 39 35 28 28 30 30 34 30 26 23 24 24 22 19 20 15 12 3 6
11 13 10 13 13 10 10 10 22 20 29 29 35 27 14 32 19 25 27 35 45 43 28 32 11 13 29 29 21 19 20 13 13 21 13 34 41 44 32 32 26 24 33 45 41 31 26 26 21 12 7 15 12 1
9 12 13 10 10 13 11 17 15 20 16 12 9 14 18 13 18 14 8 41 45 47 51 46 13 9 31 12 26 16 14 13 16 13 28 23 27 27 46 57 47 37 31 44 38 34 30 32 26 14 6 4 14 10
11 15 21 30 38 43 22 38 39 13 12 9 8 10 5 7 2 11 15 40 39 48 34 28 32 13 16 23 10 9 11 13 17 8 17 27 31 29 41 44 47 43 40 34 35 36 43 32 22 19 14 11 8 14
25 19 26 38 39 42 29 23 25 26 14 12 6 7 8 3 4 10 19 42 49 53 62 48 28 31 33 16 22 18 12 8 5 10 12 14 22 22 34 34 49 51 47 42 40 37 34 35 29 25 23 18 14 13
21 20 33 34 40 34 30 23 23 38 45 40 19 15 5 8 4 14 22 28 31 50 59 52 38 33 30 26 25 26 22 19 14 17 3 4 3 31 26 32 55 59 51 44 40 39 36 32 29 31 29 27 24 17
35 37 28 27 25 20 41 37 46 55 50 42 38 28 24 6 15 9 12 23 31 26 24 30 31 29 28 32 27 25 24 23 20 13 8 7 9 9 27 23 40 46 51 49 47 48 43 42 42 38 34 29 18 13
22 15 20 30 29 43 44 42 39 38 40 42 43 38 29 19 7 26 32 27 22 23 22 24 27 29 34 28 20 15 26 32 29 24 13 7 4 8 8 27 36 38 34 31 38 40 34 38 40 39 33 23 15 10
19 13 12 10 22 25 29 32 33 29 27 25 28 19 15 9 11 22 44 38 31 26 21 19 19 23 21 18 17 12 8 10 13 13 18 15 14 11 14 26 26 21 23 35 39 36 40 40 39 32 21 10 4 6
30 33 29 12 8 4 7 4 5 12 21 21 10 13 16 14 13 21 30 34 29 26 22 16 11 8 11 16 16 18 17 20 17 14 7 9 1 20 19 23 21 13 19 30 36 39 34 31 24 12 2 5 7 5
Wind_Direction_850mb
309 310 313 316 317 318 320 319 320 317 314 315 318 321 326 328 330 323 319 312 259 270 282 285 298 287 300 301 307 319 333 358 321 1 351 346 326 355 323 323 357 353 308 300 210 43 337 358 319 57 334 330 298 30
308 306 309 312 313 315 317 317 320 320 311 312 314 316 320 325 326 324 312 307 271 277 269 289 298 303 281 265 276 281 274 276 340 344 15 305 314 309 337 1 357 355 346 325 354 75 336 330 334 360 322 287 342 58
308 308 307 308 309 313 315 316 316 313 310 304 310 314 314 321 322 319 310 312 271 279 299 294 324 321 283 258 252 208 261 266 286 344 312 282 286 279 338 358 360 341 6 356 17 1 311 328 346 345 337 343 10 32
310 309 308 308 307 311 313 314 315 313 307 300 304 308 312 317 319 317 304 302 241 266 276 283 299 299 278 247 235 264 229 258 290 291 245 244 252 223 347 314 3 327 308 339 319 301 327 352 345 338 333 357 11 10
307 306 307 307 310 313 311 313 319 313 306 309 307 307 310 311 315 313 307 296 208 226 288 299 316 353 232 225 247 259 241 220 267 256 222 240 256 296 86 125 61 337 327 354 292 331 335 317 334 357 334 341 0 5
304 304 307 310 314 312 311 313 317 315 311 306 306 304 305 309 312 313 315 355 196 219 279 298 290 286 212 214 237 244 257 255 235 265 251 260 346 21 91 350 29 349 345 340 310 319 331 330 352 339 335 346 358 360
304 308 310 312 312 312 312 311 315 316 317 322 319 304 300 307 301 220 232 140 178 205 262 277 282 307 221 230 251 236 239 224 231 262 251 267 335 44 65 17 348 319 353 354 342 338 331 347 345 4 2 356 2 11
308 306 308 312 312 310 310 311 314 316 319 321 314 301 301 304 291 261 221 238 200 216 256 270 271 266 220 234 225 230 221 216 234 252 266 262 322 96 81 358 9 18 5 358 341 359 344 340 350 359 18 18 23 12
309 310 313 313 311 309 313 317 317 314 321 321 313 308 299 213 228 238 244 230 205 236 276 239 251 273 218 257 236 227 233 208 248 217 271 49 7 76 67 9 10 25 324 329 8 24 22 28 22 15 13 16 15 13
310 312 316 313 311 315 320 321 319 322 330 331 328 349 192 30 344 307 240 186 202 216 227 258 237 258 298 320 351 357 321 259 180 253 139 45 248 256 245 252 193 360 62 43 12 12 20 23 36 32 20 11 6 358
309 317 317 315 317 318 321 323 327 334 349 2 332 287 257 253 311 247 230 191 184 222 219 238 216 230 312 238 194 29 314 297 272 291 183 192 273 164 196 196 77 59 49 58 48 37 41 41 46 39 22 7 1 349
317 323 321 318 320 323 322 319 334 339 332 305 289 289 300 248 235 240 228 215 202 233 195 217 198 186 178 141 86 33 248 344 280 329 202 174 198 166 172 110 121 52 61 68 61 62 48 44 36 39 26 12 26 6
323 327 325 322 323 323 323 325 334 330 325 330 270 261 237 231 243 215 210 224 213 209 177 205 156 111 106 107 77 67 6 248 317 324 242 187 169 140 126 102 89 62 70 111 92 65 56 51 52 47 47 37 36 32
327 326 322 321 321 327 317 321 324 327 334 279 234 251 213 217 233 208 251 268 219 233 44 13 143 137 178 149 140 158 224 58 342 265 250 126 121 145 161 129 120 46 73 110 91 83 68 55 45 51 53 40 32 31
333 329 320 339 329 320 318 317 313 311 275 271 238 241 233 236 273 274 254 264 280 206 177 315 72 145 95 139 186 122 276 248 214 233 229 171 190 188 176 158 148 71 91 61 90 75 84 67 60 42 42 45 36 29
335 342 339 316 309 310 314 310 325 206 244 239 239 262 277 284 284 293 267 281 280 280 212 139 312 184 193 166 148 187 193 226 245 233 194 154 182 216 177 164 167 132 121 94 63 82 83 71 67 77 59 45 46 27
331 316 301 311 313 318 317 296 208 217 232 237 248 260 271 278 277 282 288 290 285 295 240 132 183 220 218 163 178 167 203 220 242 263 192 150 152 198 167 172 181 173 138 119 119 106 102 83 106 65 67 67 57 46
313 302 315 326 320 322 332 235 243 247 232 239 252 259 262 269 275 278 284 290 286 217 224 184 187 219 216 196 210 217 216 234 254 264 248 222 204 173 189 198 184 168 144 153 173 142 138 116 109 82 78 51 32 60
312 318 331 344 336 327 297 248 222 260 259 272 262 268 271 273 276 276 277 280 284 272 225 315 177 192 224 238 257 14 227 242 238 263 213 178 172 233 222 160 154 148 162 207 175 162 166 123 97 107 89 76 44 52
308 318 326 339 318 291 267 265 235 257 261 255 283 283 278 277 281 284 287 287 288 279 188 181 234 242 239 273 209 222 258 248 225 289 222 217 228 221 216 171 183 203 191 188 185 162 145 126 88 95 112 72 75 44
315 171 284 313 286 248 254 262 249 261 269 265 267 281 278 282 288 294 299 303 298 237 255 222 242 257 259 272 278 274 284 241 221 209 207 201 204 199 212 219 190 198 191 207 169 153 154 125 92 122 132 63 88 61
299 306 292 285 249 249 244 229 242 278 309 284 289 281 270 280 288 285 288 285 279 265 253 264 256 249 258 256 265 261 296 293 284 228 192 199 184 203 197 204 198 199 188 192 161 154 144 133 121 147 109 75 43 46
297 291 254 226 243 243 254 235 239 236 249 283 314 317 302 302 293 297 280 279 270 268 265 263 250 243 247 245 246 284 258 229 253 222 200 186 192 216 199 196 192 194 179 152 159 161 152 142 131 117 110 95 61 34
273 241 222 230 208 257 251 244 261 271 283 286 292 294 294 291 288 280 269 270 282 288 290 268 251 236 256 281 251 249 254 253 254 247 214 197 191 188 183 178 200 211 189 176 167 160 158 163 152 155 142 115 67 10
269 244 227 258 255 240 246 242 258 266 267 269 270 272 271 289 297 292 292 294 302 318 297 281 296 211 211 233 270 268 213 228 246 222 225 207 178 179 205 205 184 191 202 179 172 168 174 163 166 180 158 149 140 318
247 235 214 238 244 252 256 274 282 298 304 303 288 284 287 261 255 272 346 4 340 348 357 338 268 140 284 55 64 55 68 170 290 203 177 206 231 234 196 199 191 192 189 179 166 172 177 173 169 177 185 169 152 123
229 243 233 250 274 283 281 295 306 290 281 276 299 316 273 245 123 10 346 15 4 6 3 357 9 348 35 56 13 30 29 17 40 21 210 231 220 205 202 199 201 190 178 184 178 175 173 177 174 164 165 190 183 176
230 248 251 260 260 269 280 290 294 289 273 268 323 13 352 312 275 320 16 3 5 29 32 23 27 41 35 13 6 20 23 358 324 40 101 169 195 210 197 212 206 188 196 178 175 172 168 170 167 164 168 184 186 216
245 262 269 271 272 273 277 270 271 270 276 285 293 314 230 291 276 5 352 355 4 16 7 10 16 18 31 39 18 21 11 2 359 21 354 57 90 141 150 166 163 173 173 170 172 173 174 174 172 164 172 191 211 232
270 267 254 258 262 265 258 258 268 276 281 277 287 270 268 245 44 344 15 20 17 14 24 25 16 21 21 35 33 42 40 40 43 30 25 85 52 139 166 163 181 182 177 176 174 174 175 172 172 177 191 195 212 245
267 255 255 259 270 269 276 281 280 273 271 283 276 279 291 147 98 40 29 15 15 24 37 54 50 49 46 34 34 31 58 69 69 66 57 28 200 172 156 157 151 167 175 183 191 185 178 172 182 197 190 189 209 235
254 253 269 274 285 290 280 272 266 255 268 277 287 284 293 104 70 29 9 11 16 18 23 24 27 36 31 11 19 33 15 346 1 43 60 79 83 101 137 184 175 178 171 160 169 176 184 183 180 185 184 173 172 197
284 280 273 286 283 272 6 194 270 248 253 240 253 30 63 71 69 23 11 17 17 14 15 16 7 4 44 52 62 63 61 57 52 56 60 50 16 17 56 53 61 103 149 149 160 169 167 166 157 152 187 237 221 192